Showing default

HAWK-3B, 48931

Orbit data source: Space-Track

HAWK-3B, 48931 is a payload satellite owned by HawkEye 360 (US) in SSO that was launched on Wed, 30 Jun 2021 UTC via an FALCON 9 launch vehicle from the Air Force Eastern Test Range (AFETR). Payload-class satellites include a variety of spacecraft equipped with specific instruments for various scientific and technological missions. These include communications satellites like Starlink; space stations such as the ISS; scientific satellites like the Hubble; Earth observation satellites from companies like Planet Labs, Umbra, and HawkEye 360; GPS; miniature CubeSats for education and research; and military/defense satellites.

Loading next visibility...
Identifier
48931, 2021-059BE
Orbit
SSO
Country
Flag of USUS
Related business
Manufacturer
UTIAS-SFL
Mission
Operational Commercial Sigint
Bus & Motor
DEFIANT, Unknown motor
Mass
31 kg wet, 30 kg dry
Launch date (UTC)
2021-06-30 (4 years ago)
Launch vehicle
FALCON 9
Launch site
Air Force Eastern Test Range (AFETR)
Object type
Payload
Rocket body
Debris
Shape & HBR
Box + 2 Pan, 1.0 m
Radar Cross Section
0.348 m², Medium (>0.1 m² and < 1m²)

Expand to show TLE details & history
Last TLE update: 11 hours ago

TLE from 11 hours ago
0 HAWK-3B
1 48931U 21059BE  25311.04588983  .00025598  00000-0  41790-3 0  9992
2 48931  97.6721 124.7124 0007312  68.2005 292.0024 15.52538094243206
Epoch: 2025-11-07T01:06Z
TLE epoch observation values (Epoch: 2025-11-07T01:06:04.881Z)
Latitude
-0.00004°
Longitude
61.69658°
Altitude
410.588 km
Speed
7.666 km/s
True Right ascension
08h 18m 50s
True Declination
0° 00' 00"
Sunlit
Object was in daylight at epoch
Visualization orbit readout
Latitude
Unknown
Longitude
Unknown
Altitude
Unknown
Speed
Unknown
Apparent Right ascension
Unknown
Apparent Declination
Unknown
Sunlit
N/A
Visualization observer readout
Local Sidereal Time
08:06:11
Azimuth
Unknown
Elevation
Unknown
Doppler factor
Unknown
Orbital elements
Apogee altitude
411.214 km
Perigee altitude
401.292 km
Semi-major axis
6,784.39 km
Eccentricity
0.00073
Inclination
97.6721°
RAAN
124.7124°
Arg. of periapsis
68.2005°
True anomaly
291.92469°
Mean anomaly
292.0024°
Eccentric anomaly
291.96355°
Mean motion
3.88398 °/min
Orbital period
92.69 mins
BSTAR
0.0004179
Loading maneuver chart data...
Computing Atmospheric mass density...
Loading historical data...
Loading historical data...
Loading historical data...
Loading historical data...
Loading historical data...
Loading historical data...
Loading historical data...

Documentation

Showing up to 5 results
|